Other Surface Observations
Issued by NWS

Home | Current Version | Previous Version | Text Only | Print | Product List | Glossary On
Versions: 1 2 3 4 5 6 7 8 9 10 11 12 13 14 15 16 17 18 19 20 21 22 23 24 25 26 27 28 29 30 31 32 33 34 35 36 37 38 39 40 41 42 43 44 45 46 47 48 49 50
000
SXUS52 KTAE 301605
OSOTAE
OSOTAE
North Florida/South Alabama/Southwest Georgia Weather Roundup
National Weather Service Tallahassee Florida
1100 AM EST FRI JAN 30 2015

Note: "fair" indicates few or no clouds below 12,000 feet with no
significant weather and/or obstructions to visibility.

!FLZ017-115-028-034-025-301700
...North Florida...

CITY           SKY/WX    TMP DP  RH WIND       PRES   REMARKS
TALLAHASSEE    MOSUNNY   56  38  50 N16G23    30.28R
APALACHICOLA   SUNNY     63  45  51 N14       30.26R
PERRY          MOSUNNY   61  49  65 N13       30.24R
CROSS CITY       N/A     65  52  62 N10       30.21S
JACKSONVILLE   PTSUNNY   60  50  69 NW15G22   30.18R
$$

!FLZ112-006-005-002-011-301700
...Florida Panhandle...

CITY           SKY/WX    TMP DP  RH WIND       PRES   REMARKS
MARIANNA       SUNNY     52  36  54 N15       30.33R
BONIFAY        FAIR      51  35  54 N14G20    30.35R
PANAMA CITY NW FAIR      53  37  54 N16G24    30.31R
TYNDALL AFB    SUNNY     55  40  56 N13G20    30.30R
TYND DRONE APT FAIR      56  42  60 N14       30.28R
DE FUNIAK SPR  FAIR      49  33  55 N15       30.35R WCI  43
EGLIN AFB      MOSUNNY   52  35  51 N20G25    30.33S
DESTIN         SUNNY     53  37  54 N15       30.34R
HURLBURT       SUNNY     51  32  46 N18       30.33R
CRESTVIEW      MOSUNNY   48  34  58 N8G17     30.37R WCI  44
PENSACOLA      SUNNY     50  34  54 N13G28    30.35F
$$

!ALZ063-066-301700
...South Alabama...

CITY           SKY/WX    TMP DP  RH WIND       PRES   REMARKS
DOTHAN         SUNNY     49  32  52 N14       30.36R WCI  44
OZARK CAIRNS   SUNNY     49  31  48 N8        30.34R
FT RUCKER HELI SUNNY     50  32  50 N13G20    30.34R
RUCKER HELI 3  FAIR      49  31  49 N12G23    30.36S WCI  44
RUCKER HELI 2  FAIR      49  31  49 N15       30.34R WCI  43
FLORALA APT    SUNNY     51  33  50 N8G17     30.37R
ANDALUSIA      SUNNY     53  31  42 NE12      30.37R
TROY           SUNNY     49  29  46 N14       30.37R WCI  44
EUFALA         FAIR      50  30  46 N8        30.33S
MOBILE         PTSUNNY   49  32  52 N16       30.39R WCI  43
$$

!GAZ120>161-301700
...Southwest and South Central Georgia...

CITY           SKY/WX    TMP DP  RH WIND       PRES   REMARKS
THOMASVILLE    FAIR      54  39  58 N12G20    30.29R
BAINBRIDGE     SUNNY     54  36  50 N14G22    30.33R
MOODY AFB      SUNNY     54  39  55 NW16G22   30.25R
VALDOSTA       MOSUNNY   57  41  55 MISG      30.25R
MOULTRIE       SUNNY     50  36  57 NW14G20   30.29R WCI  45
BLAKELY        SUNNY     52  32  46 N12G17    30.34R
ALBANY         SUNNY     50  30  46 N9        30.33R
TIFTON         FAIR      50  32  50 N16G24    30.27R WCI  44
FITZGERALD     FAIR      50  29  44 NW12G24   30.29R
CORDELE        FAIR      49  30  47 N12G17    30.31R WCI  45
AMERICUS       FAIR      46  30  53 NW10G18   30.32S WCI  41
HOMERVILLE     FAIR      55  43  62 NW17      30.24R
$$

!GMZ750-755-770-775-301700
...Coastal and Buoy Obs...

STATION/POSITION TIME  TEMP    WIND        PRES    VSBY  WAVE
                       AIR SEA DIR/SP/G                  HT/PER
                 (UTC) (F)     (DEG/KT/KT) (MB)    (MI)  (FT/S)
KEATON BEACH     1600   60     330/  7/ 11 1023.7R
CEDAR KEY        1500   61     320/  7/ 11 1023.2R
C TOWER          1600   56     350/ 19/ 20 1023.9R
APALACHICOLA BUO 1600   65 67  360/ 16/ 19 1023.6R         2/ 4
PANAMA CITY BUOY NOT AVBL
MOBILE BUOY      1536   54 69   20/ 25/ 29 1027.6R         6/ 6
ORANGE BCH AL BU 1600   49 62   10/ 23/ 27 1026.4S         4/ 4
$$



USA.gov is the U.S. government's official web portal to all federal, state and local government web resources and services.